Weather reports worldwide

Advertisment
Chania/Souda, Greece (16746): temperature & dewpoint: 06.11.2019 07:00:00 - 12.11.2019 07:00:00 (EET)Chania/Souda, Greece (16746): wind speed: 06.11.2019 07:00:00 - 12.11.2019 07:00:00 (EET)Chania/Souda, Greece (16746): wind direction: 06.11.2019 07:00:00 - 12.11.2019 07:00:00 (EET)Chania/Souda, Greece (16746): reduced air pressure: 06.11.2019 07:00:00 - 12.11.2019 07:00:00 (EET)Chania/Souda, Greece (16746): visibility: 06.11.2019 07:00:00 - 12.11.2019 07:00:00 (EET)
Date & Time tt [°C] td [°C] ff [km/h] ff [kn] dd ppp [hPa] vv [km]
12.11.2019 07:00:00 23,0 9,0 34 18 SE - 10
12.11.2019 06:00:00 22,0 12,0 28 15 SE - 10
12.11.2019 05:00:00 21,8 11,5 26 14 ESE 1011,5 10
12.11.2019 04:00:00 22,0 11,0 31 17 SE - 10
12.11.2019 03:00:00 22,0 13,0 18 10 SE - 10
12.11.2019 02:00:00 21,2 13,2 26 14 SE 1012,3 10
12.11.2019 01:00:00 21,0 13,0 24 13 SE - 10
12.11.2019 00:00:00 21,0 15,0 26 14 ESE - 10
11.11.2019 23:00:00 19,8 17,5 21 11 ESE 1013,3 10
11.11.2019 22:00:00 19,0 18,0 16 9 ESE - 10
11.11.2019 21:00:00 20,0 18,0 22 12 ESE - 10
11.11.2019 20:00:00 19,8 17,5 15 8 SSE 1014,3 10
11.11.2019 19:00:00 20,0 19,0 8 4 ESE - 10
11.11.2019 18:00:00 20,0 19,0 11 6 E - 10
11.11.2019 17:00:00 21,0 18,8 13 7 E 1014,2 10
11.11.2019 16:00:00 22,0 19,0 16 9 ESE - 10
11.11.2019 15:00:00 22,0 18,0 15 8 SE - 10
11.11.2019 14:00:00 23,8 19,1 9 5 W 1014,6 10
11.11.2019 13:00:00 24,0 20,0 8 4 WNW - 10
11.11.2019 12:00:00 22,0 19,0 9 5 NW - 10
11.11.2019 11:00:00 21,8 18,3 0 0 N 1015,8 10
11.11.2019 10:00:00 21,0 18,0 0 0 N - 10
11.11.2019 09:00:00 19,0 17,0 0 0 N - 10
11.11.2019 08:00:00 16,6 15,9 0 0 N 1015,9 10
11.11.2019 07:00:00 16,0 16,0 0 0 N - 10
11.11.2019 06:00:00 16,0 16,0 5 3 WSW - 10
11.11.2019 05:00:00 16,6 15,9 11 6 SSE 1015,6 10
11.11.2019 04:00:00 16,0 16,0 0 0 N - 10
11.11.2019 03:00:00 16,0 16,0 8 4 NW - 10
11.11.2019 02:00:00 16,6 16,6 0 0 N 1016,3 10
11.11.2019 01:00:00 17,0 17,0 0 0 N - 10
11.11.2019 00:00:00 17,0 17,0 9 5 W - 8
10.11.2019 23:00:00 17,8 17,1 9 5 W 1016,3 9
10.11.2019 22:00:00 19,0 17,0 13 7 WNW - 10
10.11.2019 21:00:00 19,0 17,0 11 6 NE - 10
10.11.2019 20:00:00 19,0 16,7 0 0 N 1014,5 10
10.11.2019 19:00:00 18,0 17,0 0 0 N - 10
10.11.2019 18:00:00 18,0 17,0 0 0 N - 10
10.11.2019 17:00:00 19,0 18,4 18 10 WSW 1014,7 8
10.11.2019 16:00:00 22,0 16,0 13 7 WNW - 10
10.11.2019 15:00:00 24,0 16,0 9 5 NNW - 10
10.11.2019 14:00:00 24,6 15,8 9 5 WNW 1013,0 10
10.11.2019 13:00:00 25,0 16,0 8 4 ENE - 10
10.11.2019 12:00:00 22,0 17,0 8 4 ENE - 10
10.11.2019 11:00:00 21,8 15,5 9 5 ENE 1013,6 10
10.11.2019 10:00:00 20,0 15,0 8 4 ENE - 10
10.11.2019 09:00:00 18,0 15,0 8 4 ESE - 10
10.11.2019 08:00:00 15,4 14,3 0 0 N 1014,0 10
10.11.2019 07:00:00 14,0 14,0 0 0 N - 10
10.11.2019 06:00:00 15,0 14,0 0 0 N - 10
10.11.2019 05:00:00 15,6 14,9 8 4 S 1013,9 10
10.11.2019 04:00:00 16,0 16,0 0 0 N - 10
10.11.2019 03:00:00 17,0 16,0 8 4 W - 10
10.11.2019 02:00:00 16,4 15,4 0 0 N 1014,3 10
10.11.2019 01:00:00 17,0 16,0 0 0 N - 10
10.11.2019 00:00:00 17,0 16,0 0 0 N - 10
09.11.2019 23:00:00 17,6 16,9 0 0 N 1015,8 10
09.11.2019 22:00:00 17,0 16,0 0 0 N - 10
09.11.2019 21:00:00 18,0 17,0 0 0 N - 10
09.11.2019 20:00:00 19,0 17,0 0 0 N 1016,0 10
09.11.2019 19:00:00 19,0 17,0 8 4 SE - 10
09.11.2019 18:00:00 19,0 17,0 8 4 SE - 10
09.11.2019 17:00:00 20,4 16,8 8 4 ESE 1016,2 10
09.11.2019 16:00:00 21,0 17,0 11 6 ESE - 10
09.11.2019 15:00:00 22,0 16,0 9 5 E - 10
09.11.2019 14:00:00 23,0 16,1 8 4 E 1016,2 10
09.11.2019 13:00:00 23,0 15,0 5 3 - - 10
09.11.2019 12:00:00 23,0 16,0 9 5 ESE - 10
09.11.2019 11:00:00 22,4 14,7 8 4 ESE 1017,4 10
09.11.2019 10:00:00 22,0 13,0 8 4 SE - 10
09.11.2019 09:00:00 20,0 15,0 0 0 N - 10
09.11.2019 08:00:00 15,8 13,7 0 0 N 1017,4 10
09.11.2019 07:00:00 14,0 13,0 0 0 N - 10
09.11.2019 06:00:00 14,0 13,0 0 0 N - 10
09.11.2019 05:00:00 14,4 13,3 0 0 N 1016,6 10
09.11.2019 04:00:00 15,0 14,0 0 0 N - 10
09.11.2019 03:00:00 16,0 14,0 0 0 N - 10
09.11.2019 02:00:00 15,8 14,1 0 0 N 1016,3 10
09.11.2019 01:00:00 17,0 16,0 0 0 N - 10
09.11.2019 00:00:00 17,0 16,0 0 0 N - 10
08.11.2019 23:00:00 17,6 15,6 8 4 W 1016,2 10
08.11.2019 22:00:00 18,0 16,0 8 4 WSW - 10
08.11.2019 21:00:00 18,0 16,0 9 5 W - 10
08.11.2019 20:00:00 19,0 16,3 11 6 WNW 1015,1 10
08.11.2019 19:00:00 20,0 16,0 11 6 W - 10
08.11.2019 18:00:00 21,0 16,0 15 8 WNW - 10
08.11.2019 17:00:00 21,2 15,9 22 12 WNW 1013,4 10
08.11.2019 16:00:00 22,0 17,0 22 12 WNW - 10
08.11.2019 15:00:00 23,0 17,0 18 10 WNW - 10
08.11.2019 14:00:00 23,2 17,8 18 10 WNW 1012,6 10
08.11.2019 13:00:00 23,0 18,0 8 4 NW - 10
08.11.2019 12:00:00 22,0 17,0 11 6 ESE - 10
08.11.2019 11:00:00 20,6 16,7 11 6 SE 1013,5 10
08.11.2019 10:00:00 18,0 17,0 11 6 SE - 10
08.11.2019 09:00:00 18,0 17,0 11 6 WNW - 7
08.11.2019 08:00:00 21,6 16,7 22 12 SSE 1011,6 10
08.11.2019 07:00:00 22,0 16,0 31 17 SSE - 10
08.11.2019 06:00:00 22,0 14,0 31 17 S - 10
08.11.2019 05:00:00 21,6 14,1 34 18 SSE 1010,0 10
08.11.2019 04:00:00 21,0 13,0 26 14 SSE - 10
08.11.2019 03:00:00 21,0 13,0 18 10 S - 10
08.11.2019 02:00:00 21,0 13,0 18 10 SSE 1010,7 10
08.11.2019 01:00:00 21,0 14,0 16 9 SSE - 10
08.11.2019 00:00:00 21,0 13,0 15 8 SSE - 10
07.11.2019 23:00:00 21,2 12,8 15 8 SSE 1011,4 10
07.11.2019 22:00:00 21,0 17,0 11 6 SSE - 10
07.11.2019 21:00:00 21,0 17,0 8 4 SSE - 10
07.11.2019 20:00:00 21,4 16,1 8 4 ESE 1011,4 10
07.11.2019 19:00:00 22,0 15,0 8 4 SE - 10
07.11.2019 18:00:00 23,0 16,0 8 4 SE - 10
07.11.2019 17:00:00 25,2 17,2 11 6 ENE 1010,5 10
07.11.2019 16:00:00 27,0 16,0 11 6 ENE - 10
07.11.2019 15:00:00 28,0 15,0 15 8 ENE - 10
07.11.2019 14:00:00 28,2 16,0 15 8 NNW 1011,1 10
07.11.2019 13:00:00 28,0 14,0 9 5 SE - 10
07.11.2019 12:00:00 27,0 14,0 15 8 SSE - 10
07.11.2019 11:00:00 27,0 14,8 11 6 SSE 1012,0 10
07.11.2019 10:00:00 25,0 15,0 15 8 SE - 10
07.11.2019 09:00:00 23,0 14,0 11 6 SSE - 10
07.11.2019 08:00:00 19,4 12,7 0 0 N 1012,0 10
07.11.2019 07:00:00 17,0 13,0 0 0 N - 10
07.11.2019 06:00:00 17,0 14,0 0 0 N - 10
07.11.2019 05:00:00 19,6 12,9 9 5 NE 1011,8 10
07.11.2019 04:00:00 19,0 16,0 11 6 ESE - 10
07.11.2019 03:00:00 20,0 14,0 15 8 SE - 10
07.11.2019 02:00:00 19,6 14,1 9 5 S 1012,5 10
07.11.2019 01:00:00 19,0 15,0 13 7 SSE - 10
07.11.2019 00:00:00 19,0 15,0 0 0 N - 10
06.11.2019 23:00:00 17,4 16,4 8 4 SSE 1013,3 10
06.11.2019 22:00:00 18,0 16,0 0 0 N - 10
06.11.2019 21:00:00 18,0 16,0 0 0 N - 10
06.11.2019 20:00:00 18,8 16,5 0 0 N 1013,3 10
06.11.2019 19:00:00 20,0 18,0 0 0 N - 10
06.11.2019 18:00:00 21,0 18,0 0 0 N - 10
06.11.2019 17:00:00 23,0 17,6 8 4 NE 1012,2 10
06.11.2019 16:00:00 24,0 19,0 11 6 ENE - 10
06.11.2019 15:00:00 24,0 18,0 15 8 NE - 10
06.11.2019 14:00:00 24,6 18,0 18 10 ENE 1013,3 10
06.11.2019 13:00:00 25,0 17,0 15 8 NE - 10
06.11.2019 12:00:00 24,0 19,0 0 0 N - 10
06.11.2019 11:00:00 23,4 18,3 0 0 N 1014,3 10
06.11.2019 10:00:00 22,0 19,0 0 0 N - 10
06.11.2019 09:00:00 20,0 17,0 0 0 N - 10
06.11.2019 08:00:00 17,8 17,8 0 0 N 1014,7 9
06.11.2019 07:00:00 16,0 16,0 0 0 N - 8

tt = temperature
td = dewpoint
ff = wind speed
dd = wind direction
ppp = reduced air pressure
vv = visibility

Next stations